When you browse on this site, cookies collect data to enhance your experience and personalize the content and advertising you see.
Visit our Privacy Policy to learn more. By continuing to use the site, you agree to this use of cookies and data.
  • In Lithuania
  • List of Countries
  • For 7 days
  • Water Temperature
  • Satellite Maps
  • Weather Map
  • Weather Widgets
  • user-avatar
    Login

    Hourly Weather Saint John's

    Today, 20 March, Wednesday

    Time Temperature Precipitation Wind Pressure Humidity
    00:00 -8°C° 0 mm 5 mps 761 mmHg 69%
    01:00 -8°C° 0 mm 5 mps 761 mmHg 70%
    02:00 -8°C° 0 mm 4 mps 761 mmHg 72%
    03:00 -8°C° 0 mm 4 mps 761 mmHg 72%
    04:00 -8°C° 0 mm 4 mps 761 mmHg 71%
    05:00 -8°C° 0 mm 4 mps 761 mmHg 71%
    06:00 -7°C° 0 mm 5 mps 761 mmHg 67%
    07:00 -7°C° 0 mm 5 mps 761 mmHg 62%
    08:00 -6°C° 0 mm 5 mps 761 mmHg 58%
    09:00 -6°C° 0 mm 5 mps 761 mmHg 56%
    10:00 -5°C° 0 mm 5 mps 761 mmHg 54%
    11:00 -3°C° 0 mm 4 mps 761 mmHg 51%
    12:00 -4°C° 0 mm 5 mps 761 mmHg 51%
    13:00 -4°C° 0 mm 5 mps 761 mmHg 51%
    14:00 -4°C° 0 mm 5 mps 760 mmHg 51%
    15:00 -4°C° 0 mm 5 mps 760 mmHg 52%
    16:00 -4°C° 0 mm 5 mps 760 mmHg 54%
    17:00 -5°C° 0 mm 6 mps 760 mmHg 56%
    18:00 -6°C° 0 mm 6 mps 760 mmHg 60%
    19:00 -7°C° 0 mm 7 mps 761 mmHg 64%
    20:00 -8°C° 0 mm 8 mps 761 mmHg 68%
    21:00 -8°C° 0 mm 8 mps 761 mmHg 67%
    22:00 -8°C° 0 mm 8 mps 761 mmHg 67%
    23:00 -8°C° 0 mm 8 mps 762 mmHg 66%

    Tomorrow, 21 March, Thursday

    Time Temperature Precipitation Wind Pressure Humidity
    00:00 -8°C° 0 mm 8 mps 762 mmHg 66%
    01:00 -8°C° 0 mm 8 mps 762 mmHg 66%
    02:00 -8°C° 0 mm 8 mps 762 mmHg 66%
    03:00 -8°C° 0 mm 8 mps 762 mmHg 67%
    04:00 -8°C° 0 mm 8 mps 762 mmHg 67%
    05:00 -8°C° 0 mm 8 mps 763 mmHg 68%
    06:00 -7°C° 0 mm 7 mps 763 mmHg 66%
    07:00 -5°C° 0 mm 6 mps 763 mmHg 64%
    08:00 -4°C° 0 mm 6 mps 764 mmHg 62%
    09:00 -2°C° 0 mm 6 mps 764 mmHg 58%
    10:00 -1°C° 0 mm 6 mps 764 mmHg 54%
    11:00 +2°C° 0 mm 5 mps 764 mmHg 51%
    12:00 +2°C° 0 mm 6 mps 764 mmHg 50%
    13:00 +2°C° 0 mm 6 mps 764 mmHg 49%
    14:00 +2°C° 0 mm 6 mps 764 mmHg 48%
    15:00 +1°C° 0 mm 6 mps 764 mmHg 50%
    16:00 0°C° 0 mm 5 mps 764 mmHg 53%
    17:00 -1°C° 0 mm 5 mps 764 mmHg 56%
    18:00 -1°C° 0 mm 5 mps 765 mmHg 61%
    19:00 -2°C° 0 mm 5 mps 765 mmHg 66%
    20:00 -4°C° 0 mm 5 mps 765 mmHg 71%
    21:00 -4°C° 0 mm 5 mps 765 mmHg 73%
    22:00 -5°C° 0 mm 5 mps 765 mmHg 75%
    23:00 -5°C° 0 mm 5 mps 765 mmHg 77%

    Day after tomorrow, 22 March, Friday

    Time Temperature Precipitation Wind Pressure Humidity
    00:00 -4°C° 0 mm 6 mps 765 mmHg 76%
    01:00 -4°C° 0 mm 6 mps 765 mmHg 74%
    02:00 -4°C° 0 mm 6 mps 765 mmHg 72%
    03:00 -4°C° 0 mm 6 mps 765 mmHg 71%
    04:00 -4°C° 0 mm 6 mps 765 mmHg 71%
    05:00 -4°C° 0 mm 5 mps 765 mmHg 70%
    06:00 -3°C° 0 mm 6 mps 765 mmHg 69%
    07:00 -2°C° 0 mm 6 mps 765 mmHg 69%
    08:00 -1°C° 0 mm 6 mps 765 mmHg 68%
    09:00 +1°C° 0 mm 6 mps 765 mmHg 63%
    10:00 +1°C° 0 mm 6 mps 764 mmHg 59%
    11:00 +2°C° 0 mm 7 mps 764 mmHg 55%
    12:00 +2°C° 0 mm 7 mps 764 mmHg 57%
    13:00 +2°C° 0 mm 7 mps 764 mmHg 60%
    14:00 +2°C° 0 mm 7 mps 764 mmHg 63%
    15:00 -1°C° 0 mm 7 mps 763 mmHg 66%
    16:00 -2°C° 0 mm 7 mps 763 mmHg 70%
    17:00 -3°C° 0 mm 7 mps 762 mmHg 74%
    18:00 -4°C° 0 mm 8 mps 761 mmHg 77%
    19:00 -5°C° 0 mm 8 mps 761 mmHg 81%
    20:00 -5°C° 0 mm 9 mps 760 mmHg 85%
    21:00 -4°C° 0 mm 10 mps 759 mmHg 86%
    22:00 -3°C° 0 mm 11 mps 757 mmHg 86%
    23:00 -2°C° 0 mm 12 mps 756 mmHg 87%

    23 March, Saturday

    Time Temperature Precipitation Wind Pressure Humidity
    00:00 -1°C° 0.1 mm 13 mps 754 mmHg 88%
    01:00 0°C° 0.1 mm 14 mps 751 mmHg 88%
    02:00 +1°C° 0.1 mm 15 mps 749 mmHg 89%
    03:00 +1°C° 3.8 mm 15 mps 748 mmHg 90%
    04:00 +2°C° 3.8 mm 16 mps 747 mmHg 91%
    05:00 +2°C° 3.8 mm 16 mps 746 mmHg 92%
    06:00 +3°C° 2.2 mm 14 mps 745 mmHg 93%
    07:00 +3°C° 2.2 mm 12 mps 745 mmHg 95%
    08:00 +2°C° 2.2 mm 10 mps 744 mmHg 96%
    09:00 +5°C° 0 mm 8 mps 744 mmHg 94%
    10:00 +6°C° 0 mm 7 mps 743 mmHg 93%
    11:00 +8°C° 0 mm 5 mps 743 mmHg 91%
    12:00 +9°C° 0 mm 5 mps 742 mmHg 89%
    13:00 +9°C° 0 mm 5 mps 742 mmHg 88%
    14:00 +10°C° 0 mm 5 mps 741 mmHg 86%
    15:00 +9°C° 0.1 mm 6 mps 740 mmHg 89%
    16:00 +8°C° 0.1 mm 7 mps 740 mmHg 92%
    17:00 +6°C° 0.1 mm 8 mps 739 mmHg 95%
    18:00 +5°C° 0.3 mm 8 mps 740 mmHg 85%
    19:00 +5°C° 0.3 mm 7 mps 740 mmHg 75%
    20:00 +4°C° 0.3 mm 7 mps 741 mmHg 66%
    21:00 +3°C° 0 mm 7 mps 740 mmHg 69%
    22:00 +2°C° 0 mm 6 mps 740 mmHg 73%
    23:00 +1°C° 0 mm 6 mps 740 mmHg 77%

    24 March, Sunday

    Time Temperature Precipitation Wind Pressure Humidity
    00:00 +1°C° 0 mm 6 mps 740 mmHg 82%
    01:00 0°C° 0 mm 7 mps 739 mmHg 86%
    02:00 0°C° 0 mm 7 mps 739 mmHg 91%
    03:00 0°C° 0.1 mm 7 mps 738 mmHg 92%
    04:00 0°C° 0.1 mm 7 mps 737 mmHg 92%
    05:00 +1°C° 0.1 mm 8 mps 737 mmHg 93%
    06:00 +2°C° 0.3 mm 7 mps 736 mmHg 91%
    07:00 0°C° 0.3 mm 7 mps 736 mmHg 90%
    08:00 0°C° 0.3 mm 7 mps 735 mmHg 89%
    09:00 0°C° 0.1 mm 7 mps 735 mmHg 85%
    10:00 0°C° 0.1 mm 7 mps 735 mmHg 81%
    11:00 0°C° 0.1 mm 7 mps 734 mmHg 77%
    12:00 0°C° 0 mm 8 mps 735 mmHg 77%
    13:00 0°C° 0 mm 9 mps 735 mmHg 76%
    14:00 +1°C° 0 mm 10 mps 735 mmHg 76%
    15:00 0°C° 0 mm 10 mps 736 mmHg 76%
    16:00 0°C° 0 mm 9 mps 737 mmHg 76%
    17:00 0°C° 0 mm 9 mps 738 mmHg 76%
    18:00 -1°C° 0 mm 9 mps 739 mmHg 77%
    19:00 -1°C° 0 mm 9 mps 740 mmHg 78%
    20:00 -2°C° 0 mm 8 mps 741 mmHg 79%
    21:00 -2°C° 0 mm 8 mps 742 mmHg 78%
    22:00 -4°C° 0 mm 8 mps 743 mmHg 78%
    23:00 -4°C° 0 mm 8 mps 744 mmHg 77%

    25 March, Monday

    Time Temperature Precipitation Wind Pressure Humidity
    00:00 -3°C° 0 mm 7 mps 745 mmHg 78%
    01:00 -4°C° 0 mm 7 mps 745 mmHg 79%
    02:00 -4°C° 0 mm 6 mps 746 mmHg 81%
    03:00 -4°C° 0 mm 7 mps 747 mmHg 79%
    04:00 -4°C° 0 mm 7 mps 748 mmHg 78%
    05:00 -4°C° 0 mm 7 mps 749 mmHg 77%
    06:00 -3°C° 0 mm 7 mps 749 mmHg 74%
    07:00 -2°C° 0 mm 7 mps 750 mmHg 71%
    08:00 -1°C° 0 mm 7 mps 750 mmHg 67%
    09:00 +1°C° 0 mm 6 mps 751 mmHg 63%
    10:00 +3°C° 0 mm 6 mps 751 mmHg 58%
    11:00 +4°C° 0 mm 6 mps 751 mmHg 54%
    12:00 +5°C° 0 mm 7 mps 751 mmHg 54%
    13:00 +5°C° 0 mm 7 mps 751 mmHg 55%
    14:00 +5°C° 0 mm 7 mps 751 mmHg 55%
    15:00 +4°C° 0 mm 7 mps 752 mmHg 59%
    16:00 +4°C° 0 mm 7 mps 752 mmHg 63%
    17:00 +3°C° 0 mm 7 mps 752 mmHg 66%
    18:00 +2°C° 0 mm 7 mps 752 mmHg 70%
    19:00 0°C° 0 mm 7 mps 752 mmHg 75%
    20:00 -1°C° 0 mm 7 mps 753 mmHg 79%
    21:00 -1°C° 0 mm 8 mps 752 mmHg 81%
    22:00 0°C° 0 mm 9 mps 751 mmHg 83%
    23:00 0°C° 0 mm 9 mps 751 mmHg 85%
    Show more